Location: Czu?�w
(50.1404°N, 18.9919°E)
Time: 14:30:06
(UTC+00:00)

Cosmos 1503 Rocket - Pass Details

Date: 27 October 2020
Orbit: 752 x 791 km, 74.0° (Epoch: 28 November)

Event Time Altitude Azimuth Distance (km) Brightness Sun altitude
Rises 16:45:00 0° 339° (NNW) 3,227 7.4 -12.7°
Reaches altitude 10° 16:47:29 10° 346° (NNW) 2,302 6.6 -13.1°
Maximum altitude 16:52:28 43° 58° (ENE) 1,065 4.3 -13.9°
Enters shadow 16:56:47 14° 127° (SE) 2,071 5.8 -14.6°
